Location: Seattle
(47.6064°N, 122.3308°W)
Time: 05:48:46
(UTC-07:00)

O/OREOS (USA 219) - Visible Passes

Search period start: 28 March 2023 00:00
Search period end: 07 April 2023 00:00
Orbit: 621 x 646 km, 72.0° (Epoch: 22 May)

Date Brightness Start Highest point End Pass type
(mag) Time Alt. Az. Time Alt. Az. Time Alt. Az.
28 Mar ? 05:12:09 10° SE 05:14:22 13° E 05:16:36 10° ENE visible
29 Mar ? 05:32:11 10° SSE 05:36:04 28° ESE 05:39:56 10° NE visible
30 Mar ? 05:53:26 10° S 05:57:55 57° ESE 06:02:24 10° NNE visible
31 Mar ? 04:38:33 10° SE 04:41:07 15° E 04:43:41 10° ENE visible
31 Mar ? 06:15:23 10° SSW 06:19:57 70° WNW 06:24:32 10° NNE visible
01 Apr ? 04:58:50 10° SSE 05:02:51 30° ESE 05:06:50 10° NE visible
02 Apr ? 05:20:12 10° SSW 05:24:43 64° ESE 05:29:15 10° NNE visible
03 Apr ? 04:05:01 10° SE 04:07:52 17° E 04:10:44 10° ENE visible
03 Apr ? 05:42:16 10° SW 05:46:47 63° WNW 05:51:20 10° NNE visible
04 Apr ? 04:26:56 18° SSE 04:29:37 33° ESE 04:33:43 10° NE visible
04 Apr ? 06:04:54 10° WSW 06:09:01 32° NW 06:13:08 10° N visible
05 Apr ? 04:48:59 26° S 04:51:32 71° ESE 04:56:05 10° NNE visible
06 Apr ? 03:33:29 17° ESE 03:34:38 18° E 03:37:44 10° ENE visible
06 Apr ? 05:10:57 23° SW 05:13:36 57° WNW 05:18:07 10° NNE visible
